| time (UTC) | temp F | wind direction | speed MPH | gust MPH | rain 1hr in | rain 24hr in | rain mn in | humidity % | barometer mb |
| 20260831004202 | 95 | 282 | 0.0 | 0.0 | 0.00 | 0.00 | 0.00 | 27 | 1009.2 |
| 20260831003704 | 95 | 282 | 0.0 | 0.0 | 0.00 | 0.00 | 0.00 | 28 | 1009.3 |
| 20260831003201 | 95 | 282 | 0.0 | 0.0 | 0.00 | 0.00 | 0.00 | 25 | 1009.2 |
| 20260831002657 | 95 | 282 | 0.0 | 0.0 | 0.00 | 0.00 | 0.00 | 27 | 1009.2 |
| 20260831002153 | 95 | 282 | 0.0 | 0.0 | 0.00 | 0.00 | 0.00 | 25 | 1009.3 |
| 20260831001649 | 95 | 282 | 0.0 | 0.0 | 0.00 | 0.00 | 0.00 | 26 | 1009.3 |
| 20260831001142 | 96 | 282 | 0.0 | 0.0 | 0.00 | 0.00 | 0.00 | 26 | 1009.3 |
| 20260831000640 | 96 | 282 | 0.0 | 0.0 | 0.00 | 0.00 | 0.00 | 24 | 1009.3 |
| 20260831000139 | 96 | 282 | 0.0 | 0.0 | 0.00 | 0.00 | 0.00 | 26 | 1009.4 |
| 20260830235640 | 96 | 282 | 0.0 | 0.0 | 0.00 | 0.00 | 0.00 | 26 | 1009.4 |
| 20260830235136 | 96 | 282 | 0.0 | 0.0 | 0.00 | 0.00 | 0.00 | 25 | 1009.4 |
| 20260830234635 | 96 | 282 | 0.0 | 0.0 | 0.00 | 0.00 | 0.00 | 25 | 1009.4 |
| 20260830234134 | 97 | 282 | 0.0 | 0.0 | 0.00 | 0.00 | 0.00 | 24 | 1009.4 |
| 20260830233632 | 97 | 282 | 0.0 | 0.0 | 0.00 | 0.00 | 0.00 | 25 | 1009.4 |
| 20260830233133 | 97 | 282 | 0.0 | 0.0 | 0.00 | 0.00 | 0.00 | 24 | 1009.4 |
| 20260830232912 | 97 | 282 | 0.0 | 0.0 | 0.00 | 0.00 | 0.00 | 25 | 1009.5 |
| 20260830232132 | 97 | 282 | 0.0 | 0.0 | 0.00 | 0.00 | 0.00 | 24 | 1009.5 |
| 20260830231634 | 97 | 282 | 0.0 | 0.0 | 0.00 | 0.00 | 0.00 | 24 | 1009.5 |
| 20260830231134 | 97 | 282 | 0.0 | 0.0 | 0.00 | 0.00 | 0.00 | 23 | 1009.6 |
| 20260830230634 | 97 | 282 | 0.0 | 0.0 | 0.00 | 0.00 | 0.00 | 24 | 1009.6 |
| 20260830230133 | 97 | 282 | 0.0 | 0.0 | 0.00 | 0.00 | 0.00 | 25 | 1009.6 |
| 20260830225633 | 97 | 282 | 0.0 | 0.0 | 0.00 | 0.00 | 0.00 | 24 | 1009.8 |
| 20260830225132 | 97 | 282 | 0.0 | 0.0 | 0.00 | 0.00 | 0.00 | 24 | 1009.8 |
| 20260830224633 | 97 | 282 | 0.0 | 0.0 | 0.00 | 0.00 | 0.00 | 25 | 1010.0 |
| 20260830224132 | 97 | 282 | 0.0 | 0.0 | 0.00 | 0.00 | 0.00 | 24 | 1010.1 |
| 20260830223631 | 97 | 282 | 0.0 | 0.0 | 0.00 | 0.00 | 0.00 | 23 | 1010.3 |
| 20260830223127 | 97 | 282 | 0.0 | 0.0 | 0.00 | 0.00 | 0.00 | 25 | 1010.3 |
| 20260830222622 | 97 | 282 | 0.0 | 0.0 | 0.00 | 0.00 | 0.00 | 23 | 1010.4 |
| 20260830222118 | 97 | 282 | 0.0 | 0.0 | 0.00 | 0.00 | 0.00 | 25 | 1010.4 |
| 20260830221613 | 97 | 282 | 0.0 | 0.0 | 0.00 | 0.00 | 0.00 | 24 | 1010.4 |
| 20260830221352 | 97 | 282 | 0.0 | 0.0 | 0.00 | 0.00 | 0.00 | 25 | 1010.4 |
| 20260830220602 | 97 | 282 | 0.0 | 0.0 | 0.00 | 0.00 | 0.00 | 23 | 1010.6 |
| 20260830220104 | 96 | 282 | 0.0 | 0.0 | 0.00 | 0.00 | 0.00 | 25 | 1010.7 |
| 20260830215604 | 97 | 282 | 0.0 | 0.0 | 0.00 | 0.00 | 0.00 | 26 | 1010.7 |
| 20260830215104 | 97 | 282 | 0.0 | 0.0 | 0.00 | 0.00 | 0.00 | 26 | 1010.8 |
| 20260830214602 | 97 | 282 | 0.0 | 0.0 | 0.00 | 0.00 | 0.00 | 25 | 1010.9 |
| 20260830214102 | 97 | 282 | 0.0 | 0.0 | 0.00 | 0.00 | 0.00 | 26 | 1011.0 |
| 20260830213604 | 97 | 282 | 0.0 | 0.0 | 0.00 | 0.00 | 0.00 | 25 | 1011.1 |
| 20260830213054 | 96 | 282 | 0.0 | 0.0 | 0.00 | 0.00 | 0.00 | 26 | 1011.1 |
| 20260830212549 | 95 | 282 | 0.0 | 0.0 | 0.00 | 0.00 | 0.00 | 29 | 1011.3 |
| 20260830212044 | 95 | 282 | 0.0 | 0.0 | 0.00 | 0.00 | 0.00 | 29 | 1011.3 |
| 20260830211540 | 95 | 282 | 0.0 | 0.0 | 0.00 | 0.00 | 0.00 | 28 | 1011.3 |
| 20260830211037 | 95 | 282 | 0.0 | 3.0 | 0.00 | 0.00 | 0.00 | 29 | 1011.4 |
| 20260830210537 | 95 | 282 | 0.0 | 3.0 | 0.00 | 0.00 | 0.00 | 31 | 1011.4 |
| 20260830210038 | 95 | 265 | 0.0 | 0.0 | 0.00 | 0.00 | 0.00 | 30 | 1011.5 |
| 20260830205535 | 95 | 265 | 0.0 | 1.0 | 0.00 | 0.00 | 0.00 | 30 | 1011.5 |
| 20260830205038 | 94 | 265 | 0.0 | 1.0 | 0.00 | 0.00 | 0.00 | 30 | 1011.6 |
| 20260830204532 | 94 | 182 | 0.0 | 0.0 | 0.00 | 0.00 | 0.00 | 32 | 1011.6 |
| 20260830204110 | 94 | 182 | 0.0 | 0.0 | 0.00 | 0.00 | 0.00 | 31 | 1011.7 |
| 20260830204053 | 94 | 182 | 0.0 | 0.0 | 0.00 | 0.00 | 0.00 | 31 | 1011.6 |
| 20260830203032 | 94 | 182 | 0.0 | 0.0 | 0.00 | 0.00 | 0.00 | 31 | 1011.7 |
| 20260830202534 | 93 | 182 | 0.0 | 0.0 | 0.00 | 0.00 | 0.00 | 30 | 1011.8 |
| 20260830202031 | 93 | 182 | 0.0 | 0.0 | 0.00 | 0.00 | 0.00 | 33 | 1011.9 |
| 20260830201531 | 93 | 182 | 0.0 | 0.0 | 0.00 | 0.00 | 0.00 | 29 | 1012.0 |
| 20260830201031 | 93 | 182 | 0.0 | 0.0 | 0.00 | 0.00 | 0.00 | 33 | 1012.0 |
| 20260830200532 | 92 | 182 | 0.0 | 0.0 | 0.00 | 0.00 | 0.00 | 30 | 1012.0 |
| 20260830200032 | 92 | 182 | 0.0 | 0.0 | 0.00 | 0.00 | 0.00 | 31 | 1012.0 |
| 20260830195531 | 92 | 182 | 0.0 | 0.0 | 0.00 | 0.00 | 0.00 | 32 | 1012.1 |
| 20260830195032 | 92 | 182 | 0.0 | 0.0 | 0.00 | 0.00 | 0.00 | 30 | 1012.2 |
| 20260830194531 | 91 | 182 | 0.0 | 0.0 | 0.00 | 0.00 | 0.00 | 30 | 1012.2 |
| 20260830194032 | 91 | 182 | 0.0 | 0.0 | 0.00 | 0.00 | 0.00 | 33 | 1012.3 |
| 20260830193532 | 90 | 182 | 0.0 | 0.0 | 0.00 | 0.00 | 0.00 | 33 | 1012.3 |
| 20260830193032 | 90 | 182 | 0.0 | 0.0 | 0.00 | 0.00 | 0.00 | 32 | 1012.3 |
| 20260830192533 | 90 | 182 | 0.0 | 0.0 | 0.00 | 0.00 | 0.00 | 31 | 1012.3 |
| 20260830192118 | 90 | 182 | 0.0 | 0.0 | 0.00 | 0.00 | 0.00 | 34 | 1012.4 |
| 20260830192058 | 90 | 182 | 0.0 | 0.0 | 0.00 | 0.00 | 0.00 | 32 | 1012.4 |
| 20260830191032 | 90 | 182 | 0.0 | 0.0 | 0.00 | 0.00 | 0.00 | 35 | 1012.5 |
| 20260830190533 | 89 | 182 | 0.0 | 0.0 | 0.00 | 0.00 | 0.00 | 35 | 1012.7 |
| 20260830190032 | 89 | 182 | 0.0 | 0.0 | 0.00 | 0.00 | 0.00 | 36 | 1012.7 |
| 20260830185531 | 89 | 182 | 0.0 | 0.0 | 0.00 | 0.00 | 0.00 | 36 | 1012.8 |
| 20260830185032 | 88 | 182 | 0.0 | 0.0 | 0.00 | 0.00 | 0.00 | 35 | 1012.9 |
| 20260830184528 | 88 | 182 | 0.0 | 0.0 | 0.00 | 0.00 | 0.00 | 36 | 1012.9 |
| 20260830184030 | 87 | 182 | 0.0 | 0.0 | 0.00 | 0.00 | 0.00 | 37 | 1013.0 |
| 20260830183529 | 87 | 182 | 0.0 | 0.0 | 0.00 | 0.00 | 0.00 | 38 | 1013.0 |
| 20260830183027 | 87 | 182 | 0.0 | 0.0 | 0.00 | 0.00 | 0.00 | 37 | 1013.0 |
| 20260830182806 | 87 | 182 | 0.0 | 0.0 | 0.00 | 0.00 | 0.00 | 39 | 1013.1 |
| 20260830182025 | 87 | 182 | 0.0 | 0.0 | 0.00 | 0.00 | 0.00 | 37 | 1013.0 |
| 20260830181518 | 87 | 182 | 0.0 | 0.0 | 0.00 | 0.00 | 0.00 | 39 | 1013.0 |
| 20260830181016 | 87 | 182 | 0.0 | 0.0 | 0.00 | 0.00 | 0.00 | 38 | 1013.0 |
| 20260830180513 | 87 | 182 | 0.0 | 0.0 | 0.00 | 0.00 | 0.00 | 38 | 1013.0 |
| 20260830180012 | 87 | 182 | 0.0 | 0.0 | 0.00 | 0.00 | 0.00 | 39 | 1013.0 |
| 20260830175515 | 86 | 182 | 0.0 | 2.0 | 0.00 | 0.00 | 0.00 | 39 | 1013.0 |
| 20260830175013 | 86 | 182 | 0.0 | 2.0 | 0.00 | 0.00 | 0.00 | 40 | 1013.1 |
| 20260830174757 | 85 | 183 | 0.0 | 1.0 | 0.00 | 0.00 | 0.00 | 41 | 1013.0 |
| 20260830174008 | 85 | 194 | 0.0 | 0.0 | 0.00 | 0.00 | 0.00 | 40 | 1013.1 |
| 20260830173504 | 85 | 194 | 0.0 | 0.0 | 0.00 | 0.00 | 0.00 | 40 | 1013.0 |
| 20260830173007 | 84 | 194 | 0.0 | 0.0 | 0.00 | 0.00 | 0.00 | 41 | 1013.0 |
| 20260830172504 | 84 | 194 | 0.0 | 0.0 | 0.00 | 0.00 | 0.00 | 40 | 1013.1 |
| 20260830172003 | 83 | 194 | 0.0 | 1.0 | 0.00 | 0.00 | 0.00 | 41 | 1013.0 |
| 20260830171503 | 83 | 194 | 0.0 | 1.0 | 0.00 | 0.00 | 0.00 | 40 | 1013.0 |
| 20260830171004 | 83 | 298 | 0.0 | 0.0 | 0.00 | 0.00 | 0.00 | 40 | 1013.0 |
| 20260830170502 | 82 | 298 | 0.0 | 0.0 | 0.00 | 0.00 | 0.00 | 40 | 1013.0 |
| 20260830170004 | 82 | 298 | 0.0 | 0.0 | 0.00 | 0.00 | 0.00 | 40 | 1012.9 |
| 20260830165750 | 81 | 298 | 0.0 | 1.0 | 0.00 | 0.00 | 0.00 | 42 | 1013.0 |
| 20260830165004 | 81 | 298 | 0.0 | 1.0 | 0.00 | 0.00 | 0.00 | 41 | 1013.0 |
| 20260830164503 | 80 | 316 | 0.0 | 0.0 | 0.00 | 0.00 | 0.00 | 41 | 1013.1 |
| 20260830164002 | 79 | 316 | 0.0 | 0.0 | 0.00 | 0.00 | 0.00 | 41 | 1013.0 |
| 20260830163503 | 79 | 316 | 0.0 | 0.0 | 0.00 | 0.00 | 0.00 | 42 | 1013.1 |
| 20260830163001 | 78 | 316 | 0.0 | 0.0 | 0.00 | 0.00 | 0.00 | 42 | 1013.1 |
| 20260830162504 | 77 | 316 | 0.0 | 0.0 | 0.00 | 0.00 | 0.00 | 42 | 1013.0 |
| 20260830162004 | 77 | 316 | 0.0 | 0.0 | 0.00 | 0.00 | 0.00 | 41 | 1013.0 |
| 20260830161504 | 76 | 316 | 0.0 | 0.0 | 0.00 | 0.00 | 0.00 | 42 | 1013.0 |
| 20260830160956 | 76 | 316 | 0.0 | 0.0 | 0.00 | 0.00 | 0.00 | 43 | 1013.0 |
| 20260830160451 | 75 | 316 | 0.0 | 0.0 | 0.00 | 0.00 | 0.00 | 43 | 1012.9 |
| 20260830155946 | 74 | 316 | 0.0 | 0.0 | 0.00 | 0.00 | 0.00 | 45 | 1012.9 |
| 20260830155442 | 74 | 316 | 0.0 | 0.0 | 0.00 | 0.00 | 0.00 | 46 | 1012.9 |
| 20260830154935 | 73 | 316 | 0.0 | 0.0 | 0.00 | 0.00 | 0.00 | 47 | 1012.8 |
| 20260830154433 | 72 | 316 | 0.0 | 0.0 | 0.00 | 0.00 | 0.00 | 47 | 1012.8 |
| 20260830153932 | 71 | 316 | 0.0 | 0.0 | 0.00 | 0.00 | 0.00 | 47 | 1012.8 |
| 20260830153433 | 71 | 316 | 0.0 | 0.0 | 0.00 | 0.00 | 0.00 | 48 | 1012.8 |
| 20260830152931 | 70 | 316 | 0.0 | 0.0 | 0.00 | 0.00 | 0.00 | 48 | 1012.8 |
| 20260830152432 | 69 | 316 | 0.0 | 0.0 | 0.00 | 0.00 | 0.00 | 49 | 1012.8 |
| 20260830151932 | 68 | 316 | 0.0 | 0.0 | 0.00 | 0.00 | 0.00 | 50 | 1012.8 |
| 20260830151431 | 67 | 316 | 0.0 | 0.0 | 0.00 | 0.00 | 0.00 | 52 | 1012.8 |
| 20260830150932 | 67 | 316 | 0.0 | 0.0 | 0.00 | 0.00 | 0.00 | 53 | 1012.8 |
| 20260830150433 | 66 | 316 | 0.0 | 0.0 | 0.00 | 0.00 | 0.00 | 54 | 1012.9 |
| 20260830145935 | 65 | 316 | 0.0 | 0.0 | 0.00 | 0.00 | 0.00 | 54 | 1012.8 |
| 20260830145433 | 65 | 316 | 0.0 | 0.0 | 0.00 | 0.00 | 0.00 | 55 | 1012.8 |
| 20260830144931 | 65 | 316 | 0.0 | 0.0 | 0.00 | 0.00 | 0.00 | 55 | 1012.6 |
| 20260830144427 | 65 | 316 | 0.0 | 0.0 | 0.00 | 0.00 | 0.00 | 55 | 1012.7 |
| 20260830143921 | 64 | 316 | 0.0 | 0.0 | 0.00 | 0.00 | 0.00 | 55 | 1012.6 |
| 20260830143418 | 64 | 316 | 0.0 | 0.0 | 0.00 | 0.00 | 0.00 | 56 | 1012.6 |
| 20260830142920 | 64 | 316 | 0.0 | 0.0 | 0.00 | 0.00 | 0.00 | 56 | 1012.6 |
| 20260830142419 | 64 | 316 | 0.0 | 0.0 | 0.00 | 0.00 | 0.00 | 56 | 1012.5 |
| 20260830141913 | 64 | 316 | 0.0 | 0.0 | 0.00 | 0.00 | 0.00 | 56 | 1012.5 |
| 20260830141701 | 64 | 316 | 0.0 | 0.0 | 0.00 | 0.00 | 0.00 | 56 | 1012.5 |
| 20260830140911 | 64 | 316 | 0.0 | 0.0 | 0.00 | 0.00 | 0.00 | 56 | 1012.5 |
| 20260830140403 | 64 | 316 | 0.0 | 0.0 | 0.00 | 0.00 | 0.00 | 56 | 1012.3 |
| 20260830140151 | 64 | 316 | 0.0 | 0.0 | 0.00 | 0.00 | 0.00 | 56 | 1012.3 |
| 20260830135403 | 64 | 316 | 0.0 | 0.0 | 0.00 | 0.00 | 0.00 | 56 | 1012.3 |
| 20260830134903 | 64 | 316 | 0.0 | 0.0 | 0.00 | 0.00 | 0.00 | 56 | 1012.1 |
| 20260830134405 | 64 | 316 | 0.0 | 0.0 | 0.00 | 0.00 | 0.00 | 56 | 1012.1 |
| 20260830133905 | 64 | 316 | 0.0 | 0.0 | 0.00 | 0.00 | 0.00 | 56 | 1012.1 |
| 20260830133403 | 64 | 316 | 0.0 | 0.0 | 0.00 | 0.00 | 0.00 | 56 | 1012.0 |
| 20260830132903 | 64 | 316 | 0.0 | 0.0 | 0.00 | 0.00 | 0.00 | 55 | 1012.1 |
| 20260830132402 | 64 | 316 | 0.0 | 0.0 | 0.00 | 0.00 | 0.00 | 55 | 1012.1 |
| 20260830131904 | 64 | 316 | 0.0 | 0.0 | 0.00 | 0.00 | 0.00 | 55 | 1012.0 |
| 20260830131404 | 64 | 316 | 0.0 | 0.0 | 0.00 | 0.00 | 0.00 | 54 | 1011.9 |
| 20260830130902 | 65 | 316 | 0.0 | 0.0 | 0.00 | 0.00 | 0.00 | 54 | 1011.9 |
| 20260830130404 | 65 | 316 | 0.0 | 0.0 | 0.00 | 0.00 | 0.00 | 54 | 1011.8 |
| 20260830130147 | 65 | 316 | 0.0 | 0.0 | 0.00 | 0.00 | 0.00 | 54 | 1011.8 |
| 20260830125404 | 65 | 316 | 0.0 | 0.0 | 0.00 | 0.00 | 0.00 | 54 | 1011.8 |
| 20260830124939 | 65 | 316 | 0.0 | 0.0 | 0.00 | 0.00 | 0.00 | 54 | 1011.8 |
| 20260830124922 | 65 | 316 | 0.0 | 0.0 | 0.00 | 0.00 | 0.00 | 54 | 1011.8 |
| 20260830123905 | 65 | 316 | 0.0 | 0.0 | 0.00 | 0.00 | 0.00 | 54 | 1011.8 |
| 20260830123435 | 65 | 316 | 0.0 | 0.0 | 0.00 | 0.00 | 0.00 | 53 | 1011.6 |
| 20260830123422 | 65 | 316 | 0.0 | 0.0 | 0.00 | 0.00 | 0.00 | 53 | 1011.7 |
| 20260830122404 | 66 | 316 | 0.0 | 0.0 | 0.00 | 0.00 | 0.00 | 53 | 1011.6 |
| 20260830121904 | 66 | 316 | 0.0 | 0.0 | 0.00 | 0.00 | 0.00 | 52 | 1011.6 |
| 20260830121404 | 66 | 316 | 0.0 | 0.0 | 0.00 | 0.00 | 0.00 | 52 | 1011.6 |
| 20260830120903 | 66 | 316 | 0.0 | 0.0 | 0.00 | 0.00 | 0.00 | 51 | 1011.6 |
| 20260830120405 | 66 | 316 | 0.0 | 0.0 | 0.00 | 0.00 | 0.00 | 51 | 1011.5 |
| 20260830115904 | 66 | 316 | 0.0 | 0.0 | 0.00 | 0.00 | 0.00 | 51 | 1011.6 |
| 20260830115403 | 66 | 316 | 0.0 | 0.0 | 0.00 | 0.00 | 0.00 | 51 | 1011.6 |
| 20260830114904 | 66 | 316 | 0.0 | 0.0 | 0.00 | 0.00 | 0.00 | 51 | 1011.6 |
| 20260830114404 | 67 | 316 | 0.0 | 0.0 | 0.00 | 0.00 | 0.00 | 51 | 1011.7 |
| 20260830113903 | 67 | 316 | 0.0 | 0.0 | 0.00 | 0.00 | 0.00 | 51 | 1011.7 |
| 20260830113645 | 67 | 316 | 0.0 | 0.0 | 0.00 | 0.00 | 0.00 | 50 | 1011.7 |
| 20260830112904 | 67 | 316 | 0.0 | 0.0 | 0.00 | 0.00 | 0.00 | 50 | 1011.7 |
| 20260830112403 | 67 | 316 | 0.0 | 0.0 | 0.00 | 0.00 | 0.00 | 49 | 1011.7 |
| 20260830111903 | 67 | 316 | 0.0 | 0.0 | 0.00 | 0.00 | 0.00 | 49 | 1011.7 |
| 20260830111640 | 67 | 316 | 0.0 | 0.0 | 0.00 | 0.00 | 0.00 | 48 | 1011.8 |
| 20260830110903 | 67 | 316 | 0.0 | 0.0 | 0.00 | 0.00 | 0.00 | 48 | 1011.8 |
| 20260830110402 | 67 | 316 | 0.0 | 0.0 | 0.00 | 0.00 | 0.00 | 48 | 1011.7 |
| 20260830110151 | 68 | 316 | 0.0 | 0.0 | 0.00 | 0.00 | 0.00 | 47 | 1011.7 |
| 20260830105404 | 68 | 316 | 0.0 | 0.0 | 0.00 | 0.00 | 0.00 | 47 | 1011.7 |
| 20260830104905 | 68 | 316 | 0.0 | 0.0 | 0.00 | 0.00 | 0.00 | 46 | 1011.7 |
| 20260830104405 | 68 | 316 | 0.0 | 0.0 | 0.00 | 0.00 | 0.00 | 46 | 1011.8 |
| 20260830103902 | 68 | 316 | 0.0 | 0.0 | 0.00 | 0.00 | 0.00 | 46 | 1011.8 |
| 20260830103402 | 69 | 316 | 0.0 | 0.0 | 0.00 | 0.00 | 0.00 | 46 | 1011.8 |
| 20260830102903 | 69 | 316 | 0.0 | 0.0 | 0.00 | 0.00 | 0.00 | 45 | 1011.8 |
| 20260830102405 | 69 | 316 | 0.0 | 0.0 | 0.00 | 0.00 | 0.00 | 45 | 1011.8 |
| 20260830101902 | 69 | 316 | 0.0 | 0.0 | 0.00 | 0.00 | 0.00 | 45 | 1011.6 |
| 20260830101405 | 69 | 316 | 0.0 | 0.0 | 0.00 | 0.00 | 0.00 | 44 | 1011.6 |
| 20260830100904 | 69 | 316 | 0.0 | 0.0 | 0.00 | 0.00 | 0.00 | 44 | 1011.5 |
| 20260830100402 | 70 | 316 | 0.0 | 0.0 | 0.00 | 0.00 | 0.00 | 44 | 1011.6 |
| 20260830095902 | 70 | 316 | 0.0 | 0.0 | 0.00 | 0.00 | 0.00 | 44 | 1011.5 |
| 20260830095405 | 70 | 316 | 0.0 | 0.0 | 0.00 | 0.00 | 0.00 | 43 | 1011.5 |
| 20260830094903 | 70 | 316 | 0.0 | 0.0 | 0.00 | 0.00 | 0.00 | 43 | 1011.5 |
| 20260830094405 | 71 | 316 | 0.0 | 0.0 | 0.00 | 0.00 | 0.00 | 43 | 1011.5 |
| 20260830093904 | 71 | 316 | 0.0 | 0.0 | 0.00 | 0.00 | 0.00 | 42 | 1011.5 |
| 20260830093402 | 71 | 316 | 0.0 | 1.0 | 0.00 | 0.00 | 0.00 | 42 | 1011.5 |
| 20260830093150 | 71 | 316 | 0.0 | 1.0 | 0.00 | 0.00 | 0.00 | 42 | 1011.5 |
| 20260830092403 | 71 | 300 | 0.0 | 0.0 | 0.00 | 0.00 | 0.00 | 42 | 1011.6 |
| 20260830092149 | 71 | 300 | 0.0 | 0.0 | 0.00 | 0.00 | 0.00 | 41 | 1011.5 |
| 20260830091646 | 71 | 300 | 0.0 | 1.0 | 0.00 | 0.00 | 0.00 | 41 | 1011.5 |
| 20260830090944 | 72 | 302 | 0.0 | 7.0 | 0.00 | 0.00 | 0.00 | 41 | 1011.5 |
| 20260830090925 | 72 | 300 | 0.0 | 1.0 | 0.00 | 0.00 | 0.00 | 41 | 1011.5 |
| 20260830085905 | 72 | 284 | 0.0 | 7.0 | 0.00 | 0.00 | 0.00 | 40 | 1011.5 |
| 20260830085404 | 72 | 309 | 0.0 | 7.0 | 0.00 | 0.00 | 0.00 | 41 | 1011.5 |
| 20260830084903 | 72 | 298 | 0.0 | 0.0 | 0.00 | 0.00 | 0.00 | 41 | 1011.5 |
| 20260830084404 | 72 | 298 | 0.0 | 0.0 | 0.00 | 0.00 | 0.00 | 41 | 1011.4 |
| 20260830083903 | 72 | 298 | 0.0 | 0.0 | 0.00 | 0.00 | 0.00 | 42 | 1011.5 |
| 20260830083406 | 73 | 298 | 0.0 | 2.0 | 0.00 | 0.00 | 0.00 | 42 | 1011.4 |
| 20260830082903 | 73 | 298 | 0.0 | 7.0 | 0.00 | 0.00 | 0.00 | 41 | 1011.4 |
| 20260830082404 | 73 | 312 | 0.0 | 7.0 | 0.00 | 0.00 | 0.00 | 42 | 1011.4 |
| 20260830081905 | 73 | 290 | 0.0 | 6.0 | 0.00 | 0.00 | 0.00 | 42 | 1011.4 |
| 20260830081403 | 73 | 290 | 0.0 | 6.0 | 0.00 | 0.00 | 0.00 | 42 | 1011.4 |
| 20260830080904 | 73 | 318 | 0.0 | 4.0 | 0.00 | 0.00 | 0.00 | 42 | 1011.4 |
| 20260830080404 | 74 | 318 | 0.0 | 4.0 | 0.00 | 0.00 | 0.00 | 42 | 1011.5 |
| 20260830080152 | 74 | 286 | 0.0 | 8.0 | 0.00 | 0.00 | 0.00 | 42 | 1011.5 |
| 20260830075402 | 74 | 289 | 1.0 | 8.0 | 0.00 | 0.00 | 0.00 | 42 | 1011.4 |
| 20260830074905 | 74 | 306 | 0.0 | 9.0 | 0.00 | 0.00 | 0.00 | 42 | 1011.5 |
| 20260830074402 | 74 | 300 | 1.0 | 9.0 | 0.00 | 0.00 | 0.00 | 42 | 1011.4 |
| 20260830073859 | 75 | 284 | 0.0 | 2.0 | 0.00 | 0.00 | 0.00 | 42 | 1011.4 |
| 20260830073400 | 75 | 284 | 0.0 | 2.0 | 0.00 | 0.00 | 0.00 | 42 | 1011.5 |
| 20260830072902 | 75 | 286 | 0.0 | 3.0 | 0.00 | 0.00 | 0.00 | 42 | 1011.4 |
| 20260830072359 | 75 | 298 | 0.0 | 3.0 | 0.00 | 0.00 | 0.00 | 42 | 1011.6 |
| 20260830071858 | 76 | 309 | 0.0 | 2.0 | 0.00 | 0.00 | 0.00 | 42 | 1011.6 |
| 20260830071359 | 76 | 309 | 0.0 | 2.0 | 0.00 | 0.00 | 0.00 | 42 | 1011.5 |
| 20260830070857 | 76 | 297 | 0.0 | 2.0 | 0.00 | 0.00 | 0.00 | 42 | 1011.5 |
| 20260830070352 | 76 | 271 | 0.0 | 1.0 | 0.00 | 0.00 | 0.00 | 41 | 1011.6 |
| 20260830065849 | 76 | 271 | 0.0 | 1.0 | 0.00 | 0.00 | 0.00 | 40 | 1011.4 |
| 20260830065351 | 76 | 293 | 0.0 | 1.0 | 0.00 | 0.00 | 0.00 | 40 | 1011.4 |
| 20260830064852 | 76 | 261 | 0.0 | 0.0 | 0.00 | 0.00 | 0.00 | 40 | 1011.4 |
| 20260830064349 | 77 | 261 | 0.0 | 1.0 | 0.00 | 0.00 | 0.00 | 39 | 1011.4 |
| 20260830063849 | 77 | 261 | 0.0 | 1.0 | 0.00 | 0.00 | 0.00 | 39 | 1011.4 |
| 20260830063344 | 77 | 275 | 0.0 | 7.0 | 0.00 | 0.00 | 0.00 | 39 | 1011.4 |
| 20260830062842 | 77 | 275 | 0.0 | 7.0 | 0.00 | 0.00 | 0.00 | 38 | 1011.4 |
| 20260830062622 | 77 | 273 | 0.0 | 2.0 | 0.00 | 0.00 | 0.00 | 37 | 1011.3 |
| 20260830061831 | 76 | 273 | 0.0 | 2.0 | 0.00 | 0.00 | 0.00 | 38 | 1011.3 |
| 20260830061333 | 77 | 300 | 0.0 | 0.0 | 0.00 | 0.00 | 0.00 | 38 | 1011.3 |
| 20260830060832 | 77 | 300 | 0.0 | 0.0 | 0.00 | 0.00 | 0.00 | 41 | 1011.2 |
| 20260830060332 | 77 | 300 | 0.0 | 0.0 | 0.00 | 0.00 | 0.00 | 41 | 1011.1 |
| 20260830055832 | 78 | 300 | 0.0 | 0.0 | 0.00 | 0.00 | 0.00 | 40 | 1011.1 |
| 20260830055334 | 78 | 300 | 0.0 | 0.0 | 0.00 | 0.00 | 0.00 | 39 | 1011.1 |
| 20260830054833 | 79 | 300 | 0.0 | 0.0 | 0.00 | 0.00 | 0.00 | 38 | 1011.1 |
| 20260830054614 | 79 | 300 | 0.0 | 0.0 | 0.00 | 0.00 | 0.00 | 37 | 1011.1 |
| 20260830053832 | 80 | 300 | 0.0 | 0.0 | 0.00 | 0.00 | 0.00 | 37 | 1011.0 |
| 20260830053330 | 80 | 300 | 0.0 | 0.0 | 0.00 | 0.00 | 0.00 | 36 | 1011.1 |
| 20260830052831 | 81 | 300 | 0.0 | 0.0 | 0.00 | 0.00 | 0.00 | 34 | 1011.1 |
| 20260830052332 | 81 | 300 | 0.0 | 0.0 | 0.00 | 0.00 | 0.00 | 33 | 1011.1 |
| 20260830052116 | 82 | 300 | 0.0 | 0.0 | 0.00 | 0.00 | 0.00 | 33 | 1011.1 |
| 20260830051333 | 82 | 300 | 0.0 | 0.0 | 0.00 | 0.00 | 0.00 | 32 | 1011.2 |
| 20260830050831 | 83 | 300 | 0.0 | 0.0 | 0.00 | 0.00 | 0.00 | 31 | 1011.1 |
| 20260830050333 | 83 | 300 | 0.0 | 0.0 | 0.00 | 0.00 | 0.00 | 31 | 1011.2 |
| 20260830045831 | 83 | 300 | 0.0 | 0.0 | 0.00 | 0.00 | 0.00 | 31 | 1011.2 |
| 20260830045331 | 83 | 300 | 0.0 | 0.0 | 0.00 | 0.00 | 0.00 | 31 | 1011.2 |
| 20260830044833 | 84 | 300 | 0.0 | 0.0 | 0.00 | 0.00 | 0.00 | 30 | 1011.2 |
| 20260830044332 | 84 | 300 | 0.0 | 0.0 | 0.00 | 0.00 | 0.00 | 30 | 1011.2 |
| 20260830043833 | 84 | 300 | 0.0 | 0.0 | 0.00 | 0.00 | 0.00 | 30 | 1011.2 |
| 20260830043332 | 85 | 300 | 0.0 | 1.0 | 0.00 | 0.00 | 0.00 | 30 | 1011.2 |
| 20260830042832 | 85 | 300 | 0.0 | 1.0 | 0.00 | 0.00 | 0.00 | 30 | 1011.3 |
| 20260830042331 | 85 | 320 | 0.0 | 1.0 | 0.00 | 0.00 | 0.00 | 30 | 1011.2 |
| 20260830041833 | 85 | 320 | 0.0 | 1.0 | 0.00 | 0.00 | 0.00 | 30 | 1011.2 |
| 20260830041334 | 85 | 298 | 0.0 | 1.0 | 0.00 | 0.00 | 0.00 | 30 | 1011.2 |
| 20260830040834 | 86 | 298 | 0.0 | 1.0 | 0.00 | 0.00 | 0.00 | 30 | 1011.2 |
| 20260830040619 | 86 | 290 | 0.0 | 0.0 | 0.00 | 0.00 | 0.00 | 30 | 1011.1 |
| 20260830040147 | 86 | 290 | 0.0 | 3.0 | 0.00 | 0.00 | 0.00 | 30 | 1010.9 |
| 20260830035851 | 86 | 290 | 0.0 | 3.0 | 0.00 | 0.00 | 0.00 | 30 | 1011.0 |
| 20260830034831 | 87 | 298 | 0.0 | 0.0 | 0.00 | 0.00 | 0.00 | 30 | 1010.8 |
| 20260830034332 | 87 | 298 | 0.0 | 0.0 | 0.00 | 0.00 | 0.00 | 31 | 1010.7 |
| 20260830033832 | 87 | 298 | 0.0 | 0.0 | 0.00 | 0.00 | 0.00 | 31 | 1010.7 |
| 20260830033313 | 87 | 298 | 0.0 | 0.0 | 0.00 | 0.00 | 0.00 | 30 | 1010.6 |
| 20260830032811 | 87 | 298 | 0.0 | 0.0 | 0.00 | 0.00 | 0.00 | 31 | 1010.5 |
| 20260830032310 | 88 | 298 | 0.0 | 0.0 | 0.00 | 0.00 | 0.00 | 31 | 1010.4 |
| 20260830031811 | 88 | 298 | 0.0 | 3.0 | 0.00 | 0.00 | 0.00 | 31 | 1010.3 |
| 20260830031308 | 88 | 298 | 0.0 | 3.0 | 0.00 | 0.00 | 0.00 | 31 | 1010.3 |
| 20260830030804 | 89 | 296 | 0.0 | 0.0 | 0.00 | 0.00 | 0.00 | 32 | 1010.2 |
| 20260830030547 | 89 | 296 | 0.0 | 0.0 | 0.00 | 0.00 | 0.00 | 32 | 1010.3 |
| 20260830025805 | 89 | 296 | 0.0 | 0.0 | 0.00 | 0.00 | 0.00 | 32 | 1010.3 |
| 20260830025548 | 89 | 296 | 0.0 | 1.0 | 0.00 | 0.00 | 0.00 | 32 | 1010.2 |
| 20260830024802 | 89 | 296 | 0.0 | 1.0 | 0.00 | 0.00 | 0.00 | 32 | 1010.1 |
| 20260830024303 | 90 | 264 | 0.0 | 0.0 | 0.00 | 0.00 | 0.00 | 31 | 1010.1 |
| 20260830023803 | 90 | 264 | 0.0 | 0.0 | 0.00 | 0.00 | 0.00 | 31 | 1010.1 |
| 20260830023302 | 91 | 264 | 0.0 | 0.0 | 0.00 | 0.00 | 0.00 | 31 | 1010.1 |
| 20260830022804 | 91 | 264 | 0.0 | 0.0 | 0.00 | 0.00 | 0.00 | 31 | 1010.0 |
| 20260830022553 | 91 | 264 | 0.0 | 0.0 | 0.00 | 0.00 | 0.00 | 31 | 1010.0 |
| 20260830021805 | 92 | 264 | 0.0 | 0.0 | 0.00 | 0.00 | 0.00 | 30 | 1010.1 |
| 20260830021302 | 92 | 264 | 0.0 | 0.0 | 0.00 | 0.00 | 0.00 | 29 | 1010.0 |
| 20260830020803 | 92 | 264 | 0.0 | 0.0 | 0.00 | 0.00 | 0.00 | 29 | 1010.1 |
| 20260830020305 | 93 | 264 | 0.0 | 0.0 | 0.00 | 0.00 | 0.00 | 28 | 1010.0 |
| 20260830015802 | 93 | 264 | 0.0 | 0.0 | 0.00 | 0.00 | 0.00 | 28 | 1010.1 |
| 20260830015306 | 93 | 264 | 0.0 | 3.0 | 0.00 | 0.00 | 0.00 | 28 | 1010.1 |
| 20260830014804 | 94 | 264 | 0.0 | 3.0 | 0.00 | 0.00 | 0.00 | 27 | 1010.1 |
| 20260830014302 | 94 | 286 | 0.0 | 0.0 | 0.00 | 0.00 | 0.00 | 27 | 1010.2 |
| 20260830014053 | 94 | 286 | 0.0 | 0.0 | 0.00 | 0.00 | 0.00 | 27 | 1010.2 |
| 20260830013552 | 94 | 286 | 0.0 | 0.0 | 0.00 | 0.00 | 0.00 | 28 | 1010.2 |
| 20260830012804 | 95 | 286 | 0.0 | 0.0 | 0.00 | 0.00 | 0.00 | 27 | 1010.2 |
| 20260830012306 | 95 | 286 | 0.0 | 2.0 | 0.00 | 0.00 | 0.00 | 27 | 1010.3 |
| 20260830011803 | 95 | 286 | 0.0 | 2.0 | 0.00 | 0.00 | 0.00 | 27 | 1010.2 |
| 20260830011303 | 96 | 271 | 0.0 | 1.0 | 0.00 | 0.00 | 0.00 | 28 | 1010.3 |
| 20260830010806 | 96 | 249 | 0.0 | 0.0 | 0.00 | 0.00 | 0.00 | 27 | 1010.2 |
| 20260830010302 | 96 | 249 | 0.0 | 0.0 | 0.00 | 0.00 | 0.00 | 28 | 1010.3 |
| 20260830010047 | 96 | 249 | 0.0 | 0.0 | 0.00 | 0.00 | 0.00 | 27 | 1010.3 |
| 20260830005306 | 96 | 249 | 0.0 | 0.0 | 0.00 | 0.00 | 0.00 | 27 | 1010.2 |
| 20260830004802 | 96 | 249 | 0.0 | 0.0 | 0.00 | 0.00 | 0.00 | 27 | 1010.3 |